Flag for U.S.A. Weather past 2 weeks in Wichita Falls, Texas, U.S.A.

Now
90 °F

Passing clouds.


Feels Like: 91 °F
Forecast: 71 / 95 °F
Wind: 20 mph from Southwest

Location: Wichita Falls - Sheppard Air Force Base

Current Time: Oct 1, 2014 at 1:22:18 PM

Latest Report: Oct 1, 2014 at 12:52 PM


Visibility: 10 mi

Pressure: 29.70 "Hg

Humidity: 42%

Dew point: 64 °F

Location of Wichita FallsLocation

Historic Weather in Wichita Falls — Graph

°F

Wichita Falls temperature yesterday

Maximum temperature yesterday: 92 °F (at 3:52 PM)
Minimum temperature yesterday: 63 °F (at 6:52 AM)
Average temperature yesterday: 78 °F

Past Weeks' High & Low Weather Summary

 TemperatureHumidityPressure
High92 °F (Sep 21, 3:52 PM)97% (Sep 19, 6:52 AM)30.22 "Hg (Sep 19, 6:52 AM)
Low55 °F (Sep 25, 6:52 AM)27% (Sep 22, 2:52 PM)29.66 "Hg (Sep 30, 6:52 PM)
Average75 °F62%29.98 "Hg
* Reported Sep 16 11:52 AM — Oct 1 11:52 AM, Wichita Falls, Weather by CustomWeather, © 2014

Note: Actual official high and low records may vary slightly from our data, if they occured in-between our weather recording intervals... More about our weather records

Advertising

Wichita Falls weather history for previous 24 hours

 ConditionsComfort  
Time TempWeatherWind HumidityBarometerVisibility
11:52 AM
Oct 1
87 °FSunny.20 mph48%29.72 "Hg10 mi
10:52 AM84 °FSunny.25 mph53%29.73 "Hg10 mi
9:52 AM81 °FSunny.21 mph60%29.73 "Hg10 mi
8:52 AM75 °FPassing clouds.17 mph71%29.72 "Hg10 mi
7:52 AM73 °FPassing clouds.13 mph74%29.71 "Hg10 mi
6:52 AM72 °FClear.12 mph76%29.70 "Hg10 mi
5:52 AM73 °FClear.12 mph71%29.69 "Hg10 mi
4:52 AM74 °FClear.13 mph67%29.69 "Hg10 mi
3:52 AM74 °FOvercast.14 mph67%29.68 "Hg10 mi
2:52 AM74 °FMostly cloudy.14 mph64%29.69 "Hg10 mi
1:52 AM77 °FPassing clouds.14 mph52%29.68 "Hg10 mi
12:52 AM78 °FClear.15 mph46%29.67 "Hg10 mi
11:52 PM
Sep 30
77 °FClear.14 mph48%29.68 "Hg10 mi
10:52 PM77 °FClear.13 mph47%29.69 "Hg10 mi
9:52 PM77 °FPassing clouds.9 mph47%29.70 "Hg10 mi
8:52 PM78 °FPassing clouds.9 mph45%29.69 "Hg10 mi
7:52 PM83 °FPassing clouds.10 mph38%29.67 "Hg10 mi
6:52 PM88 °FSunny.14 mph33%29.66 "Hg10 mi
5:52 PM88 °FPassing clouds.16 mph34%29.67 "Hg10 mi
4:52 PM91 °FPassing clouds.17 mph30%29.68 "Hg10 mi
3:52 PM92 °FPassing clouds.17 mph30%29.71 "Hg10 mi
2:52 PM91 °FPassing clouds.15 mph32%29.73 "Hg10 mi
1:52 PM90 °FPassing clouds.18 mph35%29.76 "Hg10 mi
Weather by CustomWeather, © 2014

See weather overviewHow to use our weather pages